Zurück zum Katalog

PRAETORIAN SDA_502

AktivMilitärPO
NORAD 100060·PAYLOAD·🇺🇸 United States

Gestartet Jul 16, 2026 von Vandenberg Space Force Base

Loading…

Nächste Überflüge (nächste 24 Stunden)

TLE

AktuellSource: Space-Track

Epoche: Sep 14, 2026, 23:26 UTC

1 A0060U 26163B   26257.97668797  .00000088  00000-0  65943-4 0  9992
2 A0060  81.4800 255.0100 0015003  53.1651 307.0880 13.85646719  8332

Verfolge PRAETORIAN SDA_502 in Echtzeit mit AllMySat

Download on the App Store